Terrell, TX

8:55 AM CDT on April 26, 2017 (GMT -0500)
Terrell Municipal

Weather History for KTRL - December, 2012

Change the Weather History Date:

Monday, December 10, 2012

  Actual Average (KGVT) Record (KGVT)
Temperature  
Mean Temperature 37 °F -  
Max Temperature 44 °F 55 °F 73 °F (1996)
Min Temperature 30 °F 39 °F 21 °F (2013)
Degree Days  
Heating Degree Days 28    
Moisture  
Dew Point 18 °F    
Average Humidity 47    
Maximum Humidity 72    
Minimum Humidity 34    
Precipitation  
Precipitation 0.00 in - - ()
Sea Level Pressure  
Sea Level Pressure 30.12 in    
Wind  
Wind Speed 14 mph (NNW)    
Max Wind Speed 23 mph    
Max Gust Speed 34 mph    
Visibility 10 miles    
Events      
Averages and records for this station are not official NWS values.
T = Trace of Precipitation, MM = Missing Value Source: NWS Daily Summary

Daily Weather History Graph

Daily Weather History Graph

Search for Another Location

Airport or City:

Trip Planner

Search our weather history database for the weather conditions in past years. The results will help you decide how hot, cold, wet, or windy it might be!

Date:

Astronomy

Dec. 10, 2012 Rise Set
Actual Time 7:16 AM CST 5:19 PM CST
Civil Twilight 6:49 AM CST 5:46 PM CST
Nautical Twilight 6:18 AM CST 6:17 PM CST
Astronomical Twilight 5:48 AM CST 6:47 PM CST
Moon 4:07 AM CST (12/10) 3:04 PM CST (12/10)
Length of Visible Light 10h 56m
Length of Day
10h 02m
Waning Crescent, 10% of the Moon is Illuminated
Dec 10
Waning Crescent
Dec 13
New
Dec 19
First Quarter
Dec 28
Full
Jan 4
Last Quarter

Hourly Weather History & Observations

Time (CST) Temp. Windchill Dew Point Humidity Pressure Visibility Wind Dir Wind Speed Gust Speed Precip Events Conditions
12:53 AM 42.1 °F 35.2 °F 19.9 °F 41% 30.01 in 10.0 mi NNW 12.7 mph 23.0 mph N/A   Mostly Cloudy
1:53 AM 39.0 °F 29.9 °F 15.1 °F 38% 30.02 in 10.0 mi North 17.3 mph 25.3 mph N/A   Mostly Cloudy
2:53 AM 37.9 °F 27.3 °F 16.0 °F 41% 30.07 in 10.0 mi NNW 21.9 mph 29.9 mph N/A   Overcast
3:53 AM 36.0 °F 24.4 °F 12.9 °F 39% 30.10 in 10.0 mi NNW 23.0 mph 34.5 mph N/A   Overcast
4:53 AM 36.0 °F 26.0 °F 12.9 °F 39% 30.12 in 10.0 mi NNW 17.3 mph 27.6 mph N/A   Overcast
5:53 AM 36.0 °F 26.7 °F 14.0 °F 41% 30.12 in 10.0 mi NNW 15.0 mph 25.3 mph N/A   Overcast
6:53 AM 30.9 °F 19.1 °F 23.0 °F 72% 30.14 in 10.0 mi NNW 18.4 mph 24.2 mph N/A   Overcast
7:53 AM 30.9 °F 21.2 °F 21.9 °F 69% 30.17 in 10.0 mi NNW 12.7 mph 19.6 mph N/A   Clear
8:10 AM 32.0 °F 20.8 °F 21.2 °F 64% 30.17 in 10.0 mi NW 17.3 mph 24.2 mph N/A   Mostly Cloudy
8:53 AM 30.9 °F 20.2 °F 21.9 °F 69% 30.18 in 10.0 mi NNW 15.0 mph 24.2 mph N/A   Overcast
9:43 AM 33.8 °F 23.2 °F 19.4 °F 56% 30.17 in 10.0 mi NW 17.3 mph 26.5 mph N/A   Scattered Clouds
9:53 AM 34.0 °F 24.6 °F 19.9 °F 56% 30.17 in 10.0 mi NW 13.8 mph 25.3 mph N/A   Clear
10:53 AM 37.0 °F 28.1 °F 19.9 °F 50% 30.17 in 10.0 mi NNW 15.0 mph 20.7 mph N/A   Clear
11:53 AM 39.0 °F 30.6 °F 19.0 °F 45% 30.15 in 10.0 mi WNW 15.0 mph 23.0 mph N/A   Clear
12:53 PM 41.0 °F 32.8 °F 18.0 °F 40% 30.13 in 10.0 mi NNW 16.1 mph 20.7 mph N/A   Clear
1:53 PM 42.1 °F 35.7 °F 18.0 °F 38% 30.11 in 10.0 mi NNW 11.5 mph 17.3 mph N/A   Clear
2:53 PM 44.1 °F 38.6 °F 18.0 °F 35% 30.10 in 10.0 mi NNW 10.4 mph 21.9 mph N/A   Clear
3:53 PM 44.1 °F 38.6 °F 17.1 °F 34% 30.10 in 10.0 mi NNW 10.4 mph - N/A   Clear
4:53 PM 43.0 °F 38.2 °F 16.0 °F 34% 30.09 in 10.0 mi NNW 8.1 mph - N/A   Clear
5:53 PM 37.9 °F 34.4 °F 17.1 °F 43% 30.09 in 10.0 mi NNW 4.6 mph - N/A   Clear
6:53 PM 37.0 °F 31.6 °F 17.1 °F 44% 30.12 in 10.0 mi NNW 6.9 mph - N/A   Clear
7:53 PM 37.0 °F 31.6 °F 16.0 °F 42% 30.14 in 10.0 mi NNW 6.9 mph - N/A   Clear
8:53 PM 37.0 °F 31.6 °F 16.0 °F 42% 30.14 in 10.0 mi NNW 6.9 mph - N/A   Clear
9:53 PM 34.0 °F 28.0 °F 17.1 °F 50% 30.14 in 10.0 mi NNW 6.9 mph - N/A   Clear
10:53 PM 34.0 °F 28.8 °F 17.1 °F 50% 30.15 in 10.0 mi NW 5.8 mph - N/A   Clear
11:53 PM 30.0 °F 26.5 °F 17.1 °F 59% 30.16 in 10.0 mi NNE 3.5 mph - N/A   Clear